URO601 EGPF-EGHH

Flight info

Callsign URO601
Flight time N/A
Altitude 33000
Route LUSIV L612 CALDA DCT KEPAD L151 PEPUL Y322 BUGUP
Aircraft A346/H-SDE2E3FGHIJ3J4J5M1RWXY/LB1D1

Departure

Time 2026-05-07 11:03
Airport Glasgow Airport (EGPF)

Arrival

Time N/A
Airport Bournemouth Airport (EGHH)
Time Latitude Longitude Altitude Speed Heading
2026-05-07 10:42 55.86359 -4.43985 36 ft 0 kts 242°
2026-05-07 10:52 55.86354 -4.44004 37 ft 0 kts 242°
2026-05-07 10:53 55.86362 -4.43974 37 ft 0 kts 242°
2026-05-07 10:53 55.86375 -4.43933 33 ft 0 kts 242°
2026-05-07 10:54 55.86387 -4.43892 34 ft 0 kts 242°
2026-05-07 10:54 55.86400 -4.43850 34 ft 1 kts 242°
2026-05-07 10:54 55.86403 -4.43838 32 ft 2 kts 242°
2026-05-07 10:56 55.86400 -4.43874 34 ft 6 kts 283°
2026-05-07 10:57 55.86448 -4.43935 37 ft 11 kts 331°
2026-05-07 10:57 55.86526 -4.44010 37 ft 14 kts 334°
2026-05-07 10:57 55.86603 -4.43997 37 ft 11 kts 37°
2026-05-07 10:57 55.86662 -4.43890 37 ft 6 kts 46°
2026-05-07 10:58 55.86678 -4.43862 37 ft 0 kts 46°
2026-05-07 10:58 55.86701 -4.43818 37 ft 11 kts 48°
2026-05-07 10:58 55.86747 -4.43655 37 ft 17 kts 74°
2026-05-07 10:58 55.86784 -4.43425 37 ft 21 kts 73°
2026-05-07 10:59 55.86827 -4.43162 37 ft 24 kts 74°
2026-05-07 10:59 55.86890 -4.42952 37 ft 20 kts 34°
2026-05-07 10:59 55.87023 -4.42835 37 ft 22 kts 19°
2026-05-07 10:59 55.87172 -4.42739 37 ft 17 kts 21°
2026-05-07 11:00 55.87294 -4.42652 37 ft 20 kts 20°
2026-05-07 11:00 55.87426 -4.42527 37 ft 23 kts 44°
2026-05-07 11:00 55.87540 -4.42309 37 ft 25 kts 48°
2026-05-07 11:00 55.87650 -4.42101 37 ft 9 kts 46°
2026-05-07 11:01 55.87705 -4.41998 37 ft 13 kts 46°
2026-05-07 11:01 55.87783 -4.41878 37 ft 17 kts 26°
2026-05-07 11:01 55.87819 -4.41859 37 ft 0 kts
2026-05-07 11:02 55.87849 -4.41854 37 ft 8 kts
2026-05-07 11:02 55.87915 -4.41911 37 ft 12 kts 296°
2026-05-07 11:02 55.87876 -4.42057 37 ft 16 kts 226°
2026-05-07 11:02 55.87863 -4.42080 37 ft 2 kts 226°
2026-05-07 11:03 55.87725 -4.42340 37 ft 65 kts 226°
2026-05-07 11:03 55.87248 -4.43228 38 ft 131 kts 226°
2026-05-07 11:03 55.86510 -4.44629 212 ft 168 kts 221°
2026-05-07 11:03 55.85691 -4.46157 973 ft 170 kts 222°
2026-05-07 11:04 55.84875 -4.47628 1961 ft 163 kts 223°
2026-05-07 11:04 55.84053 -4.49080 2595 ft 173 kts 223°
2026-05-07 11:04 55.83180 -4.50611 3085 ft 186 kts 224°
2026-05-07 11:04 55.82209 -4.52320 3516 ft 206 kts 224°
2026-05-07 11:05 55.81148 -4.54204 4013 ft 225 kts 225°
2026-05-07 11:05 55.79999 -4.56238 4627 ft 239 kts 225°
2026-05-07 11:05 55.78803 -4.58360 5394 ft 244 kts 224°
2026-05-07 11:05 55.77593 -4.60501 5860 ft 246 kts 224°
2026-05-07 11:06 55.76367 -4.62661 6110 ft 253 kts 224°
2026-05-07 11:06 55.75104 -4.64885 6955 ft 253 kts 224°
2026-05-07 11:06 55.73856 -4.67080 8101 ft 250 kts 224°
2026-05-07 11:06 55.72608 -4.69270 9067 ft 254 kts 223°
2026-05-07 11:07 55.71320 -4.71475 9965 ft 260 kts 223°
2026-05-07 11:07 55.69993 -4.73729 10732 ft 270 kts 224°
2026-05-07 11:07 55.68569 -4.76084 11227 ft 287 kts 212°
2026-05-07 11:07 55.66629 -4.77202 11720 ft 307 kts 184°
2026-05-07 11:08 55.64482 -4.76393 12136 ft 333 kts 157°
2026-05-07 11:08 55.62426 -4.74253 12611 ft 352 kts 152°
2026-05-07 11:08 55.60277 -4.71943 13065 ft 369 kts 152°
2026-05-07 11:08 55.58032 -4.69602 13757 ft 379 kts 153°
2026-05-07 11:09 55.55727 -4.67260 14561 ft 383 kts 153°
2026-05-07 11:09 55.53394 -4.64931 15364 ft 388 kts 154°
2026-05-07 11:09 55.51021 -4.62596 16114 ft 393 kts 154°
2026-05-07 11:09 55.48609 -4.60244 16873 ft 398 kts 154°
2026-05-07 11:10 55.46164 -4.57871 17602 ft 404 kts 154°
2026-05-07 11:10 55.43685 -4.55474 18328 ft 409 kts 154°
2026-05-07 11:10 55.41171 -4.53058 18974 ft 414 kts 154°
2026-05-07 11:10 55.38634 -4.50619 19664 ft 417 kts 154°
2026-05-07 11:11 55.36079 -4.48167 20377 ft 419 kts 154°
2026-05-07 11:11 55.33539 -4.45734 21081 ft 422 kts 154°
2026-05-07 11:11 55.30949 -4.43257 21791 ft 425 kts 154°
2026-05-07 11:11 55.28304 -4.40731 22479 ft 429 kts 154°
2026-05-07 11:12 55.25673 -4.38222 23165 ft 432 kts 154°
2026-05-07 11:12 55.23016 -4.35700 23765 ft 436 kts 154°
2026-05-07 11:12 55.20368 -4.33179 24293 ft 440 kts 154°
2026-05-07 11:12 55.17668 -4.30615 24850 ft 443 kts 154°
2026-05-07 11:13 55.14947 -4.28042 25400 ft 446 kts 154°
2026-05-07 11:13 55.12204 -4.25449 25904 ft 450 kts 154°
2026-05-07 11:13 55.09435 -4.22830 26420 ft 454 kts 154°
2026-05-07 11:13 55.06642 -4.20202 26939 ft 457 kts 154°
2026-05-07 11:14 55.03329 -4.17088 27511 ft 462 kts 154°
2026-05-07 11:14 55.00485 -4.14420 28029 ft 465 kts 154°
2026-05-07 11:14 54.97640 -4.11751 28751 ft 463 kts 154°
2026-05-07 11:14 54.94807 -4.09094 29545 ft 461 kts 154°
2026-05-07 11:15 54.91992 -4.06463 30276 ft 459 kts 154°
2026-05-07 11:15 54.89181 -4.03845 30909 ft 457 kts 154°
2026-05-07 11:15 54.86391 -4.01246 31574 ft 454 kts 154°
2026-05-07 11:15 54.84510 -3.99495 31994 ft 453 kts 154°
2026-05-07 11:16 54.80829 -3.96074 32704 ft 454 kts 154°
2026-05-07 11:16 54.78038 -3.93486 32984 ft 455 kts 154°
2026-05-07 11:16 54.73385 -3.89179 32997 ft 456 kts 154°
2026-05-07 11:17 54.67786 -3.84014 32994 ft 456 kts 154°
2026-05-07 11:17 54.62186 -3.78865 33002 ft 455 kts 153°
2026-05-07 11:18 54.57536 -3.74597 33000 ft 456 kts 153°
2026-05-07 11:18 54.53777 -3.71156 33008 ft 456 kts 153°
2026-05-07 11:19 54.45401 -3.63515 33013 ft 456 kts 154°
2026-05-07 11:19 54.39746 -3.58387 33014 ft 456 kts 153°
2026-05-07 11:20 54.34168 -3.53331 33020 ft 456 kts 153°
2026-05-07 11:20 54.28511 -3.48220 33019 ft 456 kts 153°
2026-05-07 11:21 54.22896 -3.43164 33022 ft 456 kts 153°
2026-05-07 11:21 54.17275 -3.38128 33025 ft 455 kts 153°
2026-05-07 11:22 54.11674 -3.33115 33026 ft 454 kts 153°
2026-05-07 11:22 54.06071 -3.28114 33029 ft 454 kts 153°
2026-05-07 11:23 54.00465 -3.23278 33037 ft 454 kts 155°
2026-05-07 11:23 53.94610 -3.19259 33039 ft 454 kts 159°
2026-05-07 11:24 53.88718 -3.15457 33045 ft 453 kts 159°
2026-05-07 11:24 53.83770 -3.12257 33042 ft 454 kts 159°